Radiation Dose at Monitoring Post of Fukushima Daini Nuclear Power Station
Date,Time,MP-1(microSv/h),MP-2(microSv/h),MP-3(microSv/h),MP-4(microSv/h),MP-5(microSv/h),MP-6(microSv/h),MP-7(microSv/h),Wind Direction,Wind Velocity(m/s),Rain
2019/05/30,00:00,0.192,0.174,0.292,0.274,0.268,0.146,0.089,northwest,4.9,No
2019/05/30,00:10,0.191,0.174,0.292,0.275,0.268,0.147,0.090,northwest,5.0,No
2019/05/30,00:20,0.192,0.174,0.292,0.275,0.269,0.146,0.090,northwest,4.8,No
2019/05/30,00:30,0.191,0.175,0.292,0.274,0.268,0.147,0.089,northwest,3.2,No
2019/05/30,00:40,0.192,0.174,0.291,0.274,0.269,0.145,0.091,west-northwest,4.0,No
2019/05/30,00:50,0.191,0.174,0.292,0.274,0.269,0.146,0.090,west-northwest,4.1,No
2019/05/30,01:00,0.190,0.175,0.291,0.274,0.269,0.146,0.089,west-northwest,3.3,No
2019/05/30,01:10,0.191,0.175,0.290,0.275,0.269,0.145,0.089,northwest,4.0,No
2019/05/30,01:20,0.192,0.175,0.292,0.273,0.269,0.147,0.089,northwest,3.9,No
2019/05/30,01:30,0.191,0.174,0.291,0.274,0.268,0.146,0.089,northwest,3.6,No
2019/05/30,01:40,0.192,0.174,0.290,0.273,0.269,0.146,0.091,northwest,4.3,No
2019/05/30,01:50,0.191,0.173,0.291,0.274,0.267,0.147,0.089,north-northwest,2.9,No
2019/05/30,02:00,0.191,0.174,0.291,0.274,0.269,0.146,0.089,north-northwest,3.0,No
2019/05/30,02:10,0.192,0.175,0.289,0.274,0.269,0.146,0.090,north-northwest,3.4,No
2019/05/30,02:20,0.190,0.173,0.292,0.274,0.268,0.147,0.090,north-northwest,3.1,No
2019/05/30,02:30,0.191,0.174,0.291,0.274,0.268,0.146,0.090,north,2.5,No
2019/05/30,02:40,0.192,0.174,0.290,0.274,0.269,0.146,0.089,north-northwest,1.9,No
2019/05/30,02:50,0.191,0.174,0.293,0.273,0.268,0.146,0.089,north-northwest,2.1,No
2019/05/30,03:00,0.191,0.174,0.291,0.274,0.269,0.147,0.090,north,1.3,No
2019/05/30,03:10,0.193,0.174,0.291,0.275,0.268,0.146,0.090,north-northwest,0.8,No
2019/05/30,03:20,0.191,0.174,0.291,0.274,0.267,0.146,0.090,west,1.5,No
2019/05/30,03:30,0.191,0.174,0.290,0.274,0.269,0.146,0.089,-,CALM,No
2019/05/30,03:40,0.191,0.174,0.292,0.274,0.268,0.146,0.089,west-northwest,1.0,No
2019/05/30,03:50,0.191,0.174,0.291,0.274,0.268,0.146,0.090,south,1.0,No
2019/05/30,04:00,0.191,0.174,0.291,0.273,0.268,0.145,0.090,northwest,0.9,No
2019/05/30,04:10,0.191,0.174,0.292,0.274,0.267,0.146,0.089,west,2.3,No
2019/05/30,04:20,0.191,0.174,0.290,0.274,0.267,0.146,0.090,west,2.6,No
2019/05/30,04:30,0.192,0.173,0.290,0.274,0.268,0.146,0.089,northwest,2.4,No
2019/05/30,04:40,0.191,0.175,0.291,0.275,0.268,0.145,0.089,west-northwest,5.5,No
2019/05/30,04:50,0.192,0.174,0.289,0.274,0.269,0.145,0.090,west,2.7,No
2019/05/30,05:00,0.191,0.175,0.291,0.273,0.268,0.145,0.090,west-southwest,1.4,No
2019/05/30,05:10,0.191,0.174,0.289,0.274,0.267,0.145,0.090,west-northwest,0.7,No
2019/05/30,05:20,0.191,0.174,0.290,0.272,0.269,0.146,0.089,west-southwest,5.3,No
2019/05/30,05:30,0.193,0.174,0.292,0.273,0.267,0.146,0.090,west-southwest,4.9,No
2019/05/30,05:40,0.191,0.173,0.290,0.274,0.270,0.145,0.089,west-southwest,5.5,No
2019/05/30,05:50,0.192,0.173,0.290,0.273,0.265,0.146,0.089,west,4.6,No
2019/05/30,06:00,0.192,0.174,0.292,0.273,0.268,0.145,0.089,west-southwest,4.8,No
2019/05/30,06:10,0.192,0.173,0.290,0.275,0.267,0.145,0.089,west,4.8,No
2019/05/30,06:20,0.192,0.174,0.291,0.272,0.269,0.146,0.089,west-northwest,2.9,No
2019/05/30,06:30,0.190,0.173,0.290,0.275,0.267,0.146,0.089,west,2.4,No
2019/05/30,06:40,0.193,0.173,0.290,0.273,0.268,0.145,0.090,west,1.5,No
2019/05/30,06:50,0.191,0.174,0.292,0.273,0.267,0.145,0.089,southwest,1.0,No
2019/05/30,07:00,0.191,0.172,0.288,0.273,0.270,0.146,0.089,-,CALM,No
2019/05/30,07:10,0.192,0.174,0.291,0.273,0.269,0.146,0.090,south,1.0,No
2019/05/30,07:20,0.192,0.173,0.290,0.271,0.269,0.145,0.089,south-southeast,1.3,No
2019/05/30,07:30,0.191,0.173,0.287,0.272,0.269,0.145,0.089,south,1.3,No
2019/05/30,07:40,0.192,0.173,0.290,0.274,0.267,0.145,0.089,south,2.1,No
2019/05/30,07:50,0.190,0.174,0.289,0.270,0.270,0.145,0.090,south,1.7,No
2019/05/30,08:00,0.190,0.173,0.287,0.272,0.268,0.146,0.089,south,1.9,No
2019/05/30,08:10,0.192,0.172,0.288,0.274,0.266,0.145,0.088,south,2.3,No
2019/05/30,08:20,0.190,0.174,0.291,0.272,0.270,0.146,0.089,south-southeast,2.6,No
2019/05/30,08:30,0.192,0.173,0.290,0.270,0.268,0.145,0.090,south-southeast,3.2,No
2019/05/30,08:40,0.192,0.172,0.289,0.272,0.266,0.146,0.090,south-southeast,3.3,No
2019/05/30,08:50,0.189,0.173,0.292,0.271,0.270,0.146,0.089,south-southeast,3.1,No
2019/05/30,09:00,0.191,0.174,0.291,0.275,0.270,0.145,0.089,southeast,2.7,No
2019/05/30,09:10,0.191,0.174,0.291,0.275,0.267,0.145,0.091,south-southeast,2.9,No
2019/05/30,09:20,0.190,0.174,0.292,0.273,0.266,0.146,0.090,south-southeast,3.2,No
2019/05/30,09:30,0.189,0.173,0.289,0.272,0.269,0.145,0.090,south-southeast,3.7,No
2019/05/30,09:40,0.190,0.173,0.292,0.272,0.269,0.146,0.089,southeast,2.7,No
2019/05/30,09:50,0.193,0.174,0.292,0.272,0.269,0.146,0.089,south-southeast,2.8,No
2019/05/30,10:00,0.192,0.175,0.290,0.272,0.268,0.146,0.090,south-southeast,2.5,No
2019/05/30,10:10,0.191,0.175,0.294,0.271,0.265,0.147,0.090,southeast,4.0,No
2019/05/30,10:20,0.190,0.174,0.292,0.271,0.270,0.147,0.089,southeast,4.8,No
2019/05/30,10:30,0.190,0.173,0.290,0.272,0.272,0.147,0.089,south-southeast,4.8,No
2019/05/30,10:40,0.191,0.173,0.288,0.273,0.269,0.147,0.091,south-southeast,5.2,No
2019/05/30,10:50,0.192,0.174,0.288,0.277,0.267,0.146,0.090,south-southeast,5.5,No
2019/05/30,11:00,0.193,0.175,0.289,0.275,0.267,0.146,0.089,south-southeast,5.9,No
2019/05/30,11:10,0.192,0.175,0.292,0.274,0.271,0.146,0.090,south-southeast,6.3,No
2019/05/30,11:20,0.190,0.174,0.293,0.274,0.271,0.147,0.090,south-southeast,6.7,No
2019/05/30,11:30,0.190,0.174,0.292,0.273,0.269,0.146,0.090,south-southeast,7.0,No
2019/05/30,11:40,0.189,0.176,0.292,0.273,0.268,0.146,0.090,south-southeast,6.3,No
2019/05/30,11:50,0.194,0.175,0.290,0.273,0.266,0.146,0.089,south-southeast,6.3,No
2019/05/30,12:00,0.194,0.174,0.289,0.273,0.266,0.147,0.090,south-southeast,6.5,No
2019/05/30,12:10,0.192,0.174,0.291,0.273,0.271,0.147,0.090,south-southeast,7.1,No
2019/05/30,12:20,0.191,0.174,0.290,0.277,0.272,0.146,0.089,south-southeast,7.4,No
2019/05/30,12:30,0.191,0.176,0.289,0.279,0.269,0.147,0.090,south-southeast,8.7,No
2019/05/30,12:40,0.190,0.174,0.294,0.277,0.269,0.146,0.090,south-southeast,8.4,No
2019/05/30,12:50,0.193,0.173,0.295,0.276,0.267,0.147,0.090,south,7.9,No
2019/05/30,13:00,0.195,0.174,0.295,0.274,0.267,0.147,0.090,south-southeast,8.4,No
2019/05/30,13:10,0.193,0.176,0.293,0.274,0.272,0.147,0.091,south-southeast,8.5,No
2019/05/30,13:20,0.191,0.177,0.290,0.273,0.272,0.147,0.090,south,9.8,No
2019/05/30,13:30,0.192,0.176,0.291,0.277,0.271,0.147,0.090,south-southeast,7.7,No
2019/05/30,13:40,0.191,0.175,0.292,0.278,0.270,0.146,0.089,south,8.8,No
2019/05/30,13:50,0.191,0.174,0.291,0.279,0.269,0.147,0.090,south,9.5,No
2019/05/30,14:00,0.190,0.173,0.290,0.275,0.268,0.147,0.090,south,8.4,No
2019/05/30,14:10,0.191,0.175,0.291,0.275,0.267,0.147,0.091,south,9.3,No
2019/05/30,14:20,0.190,0.177,0.292,0.275,0.269,0.146,0.089,south-southeast,9.2,No
2019/05/30,14:30,0.191,0.177,0.292,0.274,0.269,0.147,0.090,south-southeast,8.4,No
2019/05/30,14:40,0.190,0.176,0.292,0.274,0.267,0.148,0.091,south-southeast,9.8,No
2019/05/30,14:50,0.192,0.174,0.292,0.279,0.269,0.148,0.091,south-southeast,11.6,No
2019/05/30,15:00,0.191,0.175,0.291,0.279,0.267,0.147,0.090,south,11.5,No
2019/05/30,15:10,0.194,0.174,0.292,0.276,0.271,0.147,0.090,south-southeast,10.1,No
2019/05/30,15:20,0.194,0.177,0.293,0.278,0.274,0.148,0.091,south-southeast,11.2,No
2019/05/30,15:30,0.193,0.177,0.293,0.280,0.273,0.147,0.090,south-southeast,9.5,No
2019/05/30,15:40,0.191,0.176,0.295,0.276,0.272,0.149,0.090,south,9.5,No
2019/05/30,15:50,0.192,0.175,0.297,0.277,0.270,0.148,0.090,south,9.0,No
2019/05/30,16:00,0.191,0.176,0.296,0.279,0.270,0.147,0.090,south-southeast,10.1,No
2019/05/30,16:10,0.191,0.177,0.293,0.277,0.268,0.148,0.090,south-southeast,8.2,No
2019/05/30,16:20,0.194,0.176,0.296,0.279,0.268,0.148,0.091,south,9.8,No
2019/05/30,16:30,0.194,0.177,0.296,0.279,0.270,0.149,0.091,south,10.3,No
2019/05/30,16:40,0.193,0.177,0.294,0.277,0.274,0.147,0.091,south,7.4,No
2019/05/30,16:50,0.192,0.177,0.296,0.279,0.271,0.147,0.091,south,7.6,No
2019/05/30,17:00,0.192,0.177,0.295,0.280,0.269,0.147,0.091,south,6.8,No
2019/05/30,17:10,0.196,0.175,0.295,0.277,0.269,0.148,0.092,south,7.5,No
2019/05/30,17:20,0.193,0.177,0.298,0.279,0.271,0.147,0.090,south,8.2,No
2019/05/30,17:30,0.192,0.176,0.294,0.278,0.270,0.148,0.091,south,7.4,No
2019/05/30,17:40,0.195,0.176,0.295,0.278,0.273,0.146,0.089,south,6.8,No
2019/05/30,17:50,0.192,0.177,0.295,0.279,0.272,0.148,0.092,south,7.4,No
2019/05/30,18:00,0.193,0.175,0.294,0.275,0.270,0.149,0.091,south,6.8,No
2019/05/30,18:10,0.194,0.176,0.296,0.278,0.274,0.148,0.090,south-southwest,8.4,No
2019/05/30,18:20,0.193,0.176,0.294,0.277,0.273,0.149,0.091,south,6.5,No
2019/05/30,18:30,0.194,0.176,0.296,0.278,0.273,0.148,0.090,south,6.2,No
2019/05/30,18:40,0.193,0.176,0.294,0.279,0.274,0.148,0.091,south-southwest,7.9,No
2019/05/30,18:50,0.194,0.176,0.294,0.276,0.270,0.149,0.091,south-southwest,7.7,No
2019/05/30,19:00,0.194,0.177,0.296,0.280,0.275,0.148,0.091,south-southwest,7.7,No
2019/05/30,19:10,0.192,0.177,0.294,0.278,0.272,0.149,0.091,south-southwest,8.7,No
2019/05/30,19:20,0.195,0.175,0.297,0.280,0.273,0.148,0.091,south-southwest,8.4,No
2019/05/30,19:30,0.193,0.177,0.295,0.278,0.273,0.148,0.090,south,8.7,No
2019/05/30,19:40,0.195,0.176,0.298,0.278,0.272,0.148,0.092,south,9.2,No
2019/05/30,19:50,0.193,0.177,0.294,0.278,0.273,0.149,0.091,south,9.2,No
2019/05/30,20:00,0.195,0.176,0.297,0.279,0.273,0.149,0.091,south-southwest,10.1,No
2019/05/30,20:10,0.195,0.176,0.295,0.279,0.272,0.148,0.092,south-southwest,9.0,No
2019/05/30,20:20,0.193,0.177,0.296,0.278,0.270,0.149,0.091,south,8.2,No
2019/05/30,20:30,0.194,0.176,0.295,0.280,0.273,0.147,0.090,south,8.7,No
2019/05/30,20:40,0.193,0.176,0.295,0.276,0.271,0.148,0.091,south,8.7,No
2019/05/30,20:50,0.194,0.177,0.297,0.280,0.274,0.149,0.091,south-southwest,9.5,No
2019/05/30,21:00,0.193,0.176,0.296,0.276,0.271,0.149,0.091,south,9.0,No
2019/05/30,21:10,0.195,0.176,0.297,0.279,0.273,0.149,0.091,south-southwest,8.9,No
2019/05/30,21:20,0.194,0.177,0.296,0.278,0.273,0.148,0.091,south,8.7,No
2019/05/30,21:30,0.194,0.176,0.295,0.280,0.273,0.149,0.091,south,9.2,No
2019/05/30,21:40,0.193,0.177,0.295,0.278,0.270,0.148,0.090,south-southwest,10.1,No
2019/05/30,21:50,0.196,0.176,0.297,0.281,0.273,0.148,0.091,south,9.0,No
2019/05/30,22:00,0.193,0.177,0.296,0.278,0.272,0.148,0.091,south,8.5,No
2019/05/30,22:10,0.194,0.176,0.297,0.279,0.272,0.148,0.092,south,9.6,No
2019/05/30,22:20,0.193,0.177,0.295,0.279,0.273,0.148,0.090,south,9.3,No
2019/05/30,22:30,0.194,0.177,0.296,0.279,0.272,0.148,0.091,south-southwest,9.5,No
2019/05/30,22:40,0.193,0.177,0.296,0.279,0.272,0.147,0.091,south-southwest,8.7,No
2019/05/30,22:50,0.194,0.176,0.296,0.278,0.272,0.149,0.091,south,7.8,No
2019/05/30,23:00,0.194,0.176,0.296,0.280,0.272,0.147,0.091,south-southwest,7.5,No
2019/05/30,23:10,0.194,0.177,0.297,0.280,0.271,0.149,0.092,south-southwest,6.3,No
2019/05/30,23:20,0.194,0.177,0.296,0.279,0.273,0.148,0.091,south-southwest,7.0,No
2019/05/30,23:30,0.193,0.178,0.297,0.279,0.272,0.148,0.091,south-southwest,7.0,No
2019/05/30,23:40,0.194,0.177,0.296,0.280,0.273,0.148,0.091,south-southwest,6.3,No
2019/05/30,23:50,0.195,0.178,0.298,0.279,0.271,0.148,0.091,south-southwest,6.3,No
